TimeEST,TemperatureF,Dew PointF,Humidity,Sea Level PressureIn,VisibilityMPH,Wind Direction,Wind SpeedMPH,Gust SpeedMPH,PrecipitationIn,Events,Conditions,WindDirDegrees,DateUTC
12:54 AM,26.6,26.6,100,-9999,0.0,SW,36.8,43.7,N/A,Fog,Light Freezing Fog,230,2013-01-12 05:54:00
1:47 AM,26.6,26.6,100,-9999,0.0,SW,38.0,43.7,N/A,Fog,Light Freezing Fog,230,2013-01-12 06:47:00
2:49 AM,26.6,26.6,100,-9999,0.0,SW,35.7,-,N/A,Fog,Light Freezing Fog,230,2013-01-12 07:49:00
3:59 AM,26.6,26.6,100,-9999,0.0,WSW,36.8,-,N/A,Fog,Light Freezing Fog,250,2013-01-12 08:59:00
4:52 AM,26.6,26.6,100,-9999,0.0,WSW,36.8,-,N/A,Fog,Light Freezing Fog,250,2013-01-12 09:52:00
5:55 AM,30.2,30.2,100,-9999,0.0,WSW,36.8,-,N/A,Fog,Light Freezing Fog,250,2013-01-12 10:55:00
6:53 AM,32.0,32.0,100,-9999,0.0,WSW,39.1,-,N/A,Fog,Fog,250,2013-01-12 11:53:00
7:49 AM,32.0,32.0,100,-9999,0.0,West,38.0,-,N/A,Fog,Fog,260,2013-01-12 12:49:00
8:50 AM,32.0,32.0,100,-9999,0.0,West,35.7,-,N/A,Fog,Light Drizzle,260,2013-01-12 13:50:00
9:50 AM,33.8,33.8,100,-9999,0.0,West,29.9,-,N/A,Fog,Fog,260,2013-01-12 14:50:00
10:52 AM,33.8,33.8,100,-9999,0.0,West,28.8,-,N/A,Fog,Fog,260,2013-01-12 15:52:00
11:56 AM,35.6,33.8,93,-9999,100.0,West,33.4,-,N/A,,Overcast,260,2013-01-12 16:56:00
12:52 PM,35.6,35.6,100,-9999,0.1,West,34.5,-,N/A,Fog,Fog,260,2013-01-12 17:52:00
1:54 PM,37.4,33.8,87,-9999,100.0,West,39.1,-,N/A,,Overcast,260,2013-01-12 18:54:00
2:58 PM,35.6,33.8,93,-9999,100.0,West,35.7,-,N/A,,Overcast,260,2013-01-12 19:58:00
3:52 PM,35.6,33.8,93,-9999,100.0,West,38.0,-,N/A,,Mostly Cloudy,260,2013-01-12 20:52:00
4:56 PM,35.6,33.8,93,-9999,100.0,West,35.7,-,N/A,,Overcast,260,2013-01-12 21:56:00
5:47 PM,37.4,28.4,70,-9999,80.0,West,39.1,-,N/A,,Mostly Cloudy,260,2013-01-12 22:47:00
6:50 PM,35.6,28.4,75,-9999,80.0,West,41.4,-,N/A,,Mostly Cloudy,260,2013-01-12 23:50:00
7:53 PM,33.8,32.0,93,-9999,80.0,West,40.3,-,N/A,,Mostly Cloudy,260,2013-01-13 00:53:00
8:47 PM,37.4,24.8,60,-9999,80.0,West,52.9,-,N/A,,Mostly Cloudy,260,2013-01-13 01:47:00
9:56 PM,35.6,28.4,75,-9999,90.0,West,35.7,-,N/A,,Scattered Clouds,260,2013-01-13 02:56:00
10:50 PM,35.6,28.4,75,-9999,90.0,West,38.0,-,N/A,,Scattered Clouds,260,2013-01-13 03:50:00
11:52 PM,37.4,30.2,75,-9999,95.0,WNW,39.1,-,N/A,,Mostly Cloudy,290,2013-01-13 04:52:00